Regional Weather Roundup
Issued by NWS Burlington, VT

Home | Current Version | Previous Version | Text Only | Print | Product List | Glossary On
Versions: 1 2 3 4 5 6 7 8 9 10 11 12 13 14 15 16 17 18 19 20 21 22 23 24 25 26 27 28 29 30 31 32 33 34 35 36 37 38 39 40 41 42 43 44 45 46 47 48 49 50
000
ASUS41 KBTV 020030
RWRBTV
VERMONT REGIONAL WEATHER ROUNDUP
NATIONAL WEATHER SERVICE BURLINGTON VT
700 PM EST SUN FEB 01 2015

NOTE: "FAIR" INDICATES FEW OR NO CLOUDS BELOW 12,000 FEET WITH NO
SIGNIFICANT WEATHER AND/OR OBSTRUCTIONS TO VISIBILITY.

* THESE REPORTS ARE NOT UNDER NWS QUALITY CONTROL AND/OR DO NOT
  REPORT WEATHER SUCH AS PRECIPITATION AND FOG.

VTZ001>019-020100-
_____VERMONT_____


CITY           SKY/WX    TMP DP  RH WIND       PRES   REMARKS
BURLINGTON     PTCLDY     2 -10  57 N6        30.25R
6HR MIN TEMP:   2; 6HR MAX TEMP:   9;

MONTPELIER     PTCLDY    -1 -14  53 E5        30.17S
6HR MIN TEMP:  -1; 6HR MAX TEMP:   8; 6HR PCP: TRACE;

MORRISVILLE    MOCLDY     1 -11  57 N5        30.20S
6HR MIN TEMP:   1; 6HR MAX TEMP:   9; 6HR PCP: TRACE;

ST. JOHNSBURY*   N/A      2 -11  54 MISG      30.18R
6HR MIN TEMP:   2; 6HR MAX TEMP:  13;

LYNDONVILLE*   FAIR      -2 -15  53 N3        30.15S
6HR MIN TEMP:  -1; 6HR MAX TEMP:   9;

MIDDLEBURY*    FAIR       1 -10  60 CALM      30.18F
6HR MIN TEMP:   2; 6HR MAX TEMP:  14;

RUTLAND*       CLEAR      5  -4  66 N6        30.14F
6HR MIN TEMP:   7; 6HR MAX TEMP:  14;

SPRINGFIELD    PTCLDY    12  -2  53 E3        30.15R
6HR MIN TEMP:  12; 6HR MAX TEMP:  20;

HIGHGATE*      FAIR      -1 -12  61 CALM      30.26F
6HR MIN TEMP:  -2; 6HR MAX TEMP:   6;

NEWPORT*       FAIR      -3 -15  57 NE5       30.17F
6HR MIN TEMP:  -3; 6HR MAX TEMP:   5;

BENNINGTON     PTCLDY    17   5  59 CALM      30.09F
6HR MIN TEMP:  16; 6HR MAX TEMP:  22;

SUTTON*          N/A     -4 N/A N/A MISG        N/A
GALLUP MILLS*    N/A     -6 N/A N/A MISG        N/A
UNION VILLAGE*   N/A      3 N/A N/A MISG        N/A
MT. MANSFIELD*   N/A     -6 N/A N/A CALM        N/A

_____LAKE CHAMPLAIN_____


CITY           SKY/WX    TMP DP  RH WIND       PRES   REMARKS
BURTON ISLAND*   N/A      1 -11  55 N2          N/A
COLCHESTER RF*   N/A      5  -6  61 NE13        N/A  WCI -12
DIAMOND ISL*     N/A      9  -2  61 N17         N/A  WCI -10

$$

NYZ007-026>031-035-052-083-020100-
_____NORTHERN NEW YORK_____


CITY           SKY/WX    TMP DP  RH WIND       PRES   REMARKS
PLATTSBURGH    PTCLDY     2 -11  54 NE7       30.26S
6HR MIN TEMP:   2; 6HR MAX TEMP:   9;

SARANAC LAKE   PTCLDY    -2  -8  76 CALM      30.04F
6HR MIN TEMP:  -2; 6HR MAX TEMP:  10;

MASSENA        PTCLDY    -1 -15  51 CALM      30.28F
6HR MIN TEMP:  -1; 6HR MAX TEMP:   3;

OGDENSBURG*    CLEAR      0 -11  60 NE5       30.23F
POTSDAM*       PTCLDY    -2 -11  65 E3        30.22F
STARK FALLS*     N/A     -2 N/A N/A NE1         N/A
WATERTOWN      CLOUDY     5  -9  52 NE17      30.19F WCI -14
6HR MIN TEMP:   5; 6HR MAX TEMP:  10;

FT DRUM        CLOUDY     1 -10  57 NE12      30.15F WCI -15
6HR MIN TEMP:   1; 6HR MAX TEMP:   6;

ALBANY         MOCLDY    18   3  52 N8        30.15S
6HR MIN TEMP:  18; 6HR MAX TEMP:  27;

GLENS FALLS    PTCLDY    11  -1  58 N7        30.18F
6HR MIN TEMP:  11; 6HR MAX TEMP:  17;


$$
NHZ002-005-011-020100-
_____NEW HAMPSHIRE_____


CITY           SKY/WX    TMP DP  RH WIND       PRES   REMARKS
LEBANON        CLEAR      9  -8  46 NE7       30.16R
6HR MIN TEMP:   9; 6HR MAX TEMP:  20;

KEENE          MOCLDY    16   1  53 CALM      30.12S
6HR MIN TEMP:  18; 6HR MAX TEMP:  25;

MT WASHINGTON  PTCLDY    -9 -29  37 NW58        N/A  WCI -46
6HR MIN TEMP: -14; 6HR MAX TEMP:  -9;

PLYMOUTH       FAIR       9  -5  53 CALM      30.16R
6HR MIN TEMP:  10; 6HR MAX TEMP:  18;

WHITEFIELD     CLEAR     -6 -12  75 CALM      30.14R
6HR MIN TEMP:  -8; 6HR MAX TEMP:  11;


$$

_____REGIONAL QUEBEC LOCATIONS_____


CITY           SKY/WX    TMP DP  RH WIND       PRES   REMARKS
MONTREAL       CLOUDY     1 -13  51 VRB2      30.27F
QUEBEC CITY    CLEAR     -8 -20  54 SW9       30.23S
SHERBROOKE     CLEAR     -8 -17  65 CALM      30.19R

_____REGIONAL ONTARIO LOCATIONS_____


CITY           SKY/WX    TMP DP  RH WIND       PRES   REMARKS
OTTAWA         CLOUDY    -2 -17  50 N9        30.25F

______KEY______
VSB  - VISIBILITY IN MILES
WCI  - WIND CHILL INDEX
HX   - HEAT INDEX
$$
NNNN


USA.gov is the U.S. government's official web portal to all federal, state and local government web resources and services.